Probability
0 0 0 0 0 0 0 0 0 0 0 0 0 0 0 0 0 0 0 0 0 0 0 0 0 0 0 0 0 0 0 0 0 0 0 0 0 0 0 0 0 0 0
0 0 0 0 0 0 0 0 0 0 0 0 0 0 0 0 0 0 0 0 0 0 0 0 0 0 0 0 0 0 0 0 0 0 0 0 0 0 0 0 0 0 0
0 0 0 0 0 0 0 0 0 0 0 0 0 0 0 0 0 0 0 0 0 0 0 0 0 0 0 0 0 0 0 0 0 0 0 0 0 0 0 0 0 0 0
0 0 0 0 0 0 0 0 0 0 0 0 0 0 0 0 0 0 0 0 0 0 0 0 0 0 0 0 0 0 0 0 0 0 0 0 0 0 0 0 0 0 0
0 0 0 0 0 0 0 0 0 0 0 0 0 0 0 0 0 0 0 0 0 0 0 0 0 0 0 0 0 0 0 0 0 0 0 0 0 0 0 0 0 0 0
0 0 0 0 0 0 0 0 0 0 0 0 0 0 0 0 0 0 0 0 0 0 0 0 0 0 0 0 0 0 0 0 0 0 0 0 0 0 0 0 0 0 0
0 0 0 0 0 0 0 0 0 0 0 0 0 0 0 0 0 0 0 0 0 0 0 0 0 0 0 0 0 0 0 0 0 0 0 0 0 0 0 0 0 0 0
0 0 0 0 0 0 0 0 0 0 0 0 0 0 0 0 0 0 0 0 0 0 0 0 0 0 0 0 0 0 0 0 0 0 0 0 0 0 0 0 0 0 0
0 0 0 0 0 0 0 0 0 0 0 0 0 0 0 0 0 0 0 0 0 0 0 0 0 0 0 0 0 0 0 0 0 0 0 0 0 0 0 0 0 0 0
0 0 0 0 0 0 0 0 0 0 0 0 0 0 0 0 0 0 0 0 0 0 0 0 0 0 0 0 0 0 0 0 0 0 0 0 0 0 0 0 0 0 0
0 0 0 0 0 0 0 0 0 0 0 0 0 0 0 0 0 0 0 0 0 0 0 0 0 0 0 0 0 0 0 0 0 0 0 0 0 0 0 0 0 0 0
0 0 0 0 0 0 0 0 0 0 0 0 0 0 0 0 0 0 0 0 0 0 0 0 0 0 0 0 0 0 0 0 0 0 0 0 0 0 0 0 0 0 0
0 0 0 0 0 0 0 0 0 0 0 0 0 0 0 0 0 0 0 0 0 0 0 0 0 0 0 0 0 0 0 0 0 0 0 0 0 0 0 0 0 0 0
0 0 0 0 0 0 0 0 0 0 0 0 0 0 0 0 0 0 0 0 0 0 0 0 0 0 0 0 0 0 0 0 0 0 0 0 0 0 0 0 0 0 0
0 0 0 0 0 0 0 0 0 0 0 0 0 0 0 0 0 0 0 0 0 0 0 0 0 0 0 0 0 0 0 0 0 0 0 0 0 0 0 0 0 0 0
0 0 0 0 0 0 0 0 0 0 0 0 0 0 0 0 0 0 0 0 0 0 0 0 0 0 0 0 0 0 0 0 0 0 0 0 0 0 0 0 0 0 0
0 0 0 0 0 0 0 0 0 0 0 0 0 0 0 0 0 0 0 0 0 0 0 0 0 0 0 0 0 0 0 0 0 0 0 0 0 0 0 0 0 0 0
0 0 0 0 0 0 0 0 0 0 0 0 0 0 0 0 0 0 0 0 0 0 0 0 0 0 0 0 0 0 0 0 0 0 0 0 0 0 0 0 0 0 0
0 0 0 0 0 0 0 0 0 0 0 0 0 0 0 0 0 0 0 0 0 0 0 0 0 0 0 0 0 0 0 0 0 0 0 0 0 0 0 0 0 0 0
0 0 0 0 0 0 0 0 0 0 0 0 0 0 0 0 0 0 0 0 0 0 0 0 0 0 0 0 0 0 0 0 0 0 0 0 0 0 0 0 0 0 0
0 0 0 0 0 0 0 0 0 0 0 0 0 0 0 0 0 0 0 0 0 0 0 0 0 0 0 0 0 0 0 0 0 0 0 0 0 0 0 0 0 0 0
0 0 0 0 0 0 0 0 0 0 0 0 0 0 0 0 0 0 0 0 0 0 0 0 0 0 0 0 0 0 0 0 0 0 0 0 0 0 0 0 0 0 0
0 0 0 0 0 0 0 0 0 0 0 0 0 0 0 0 0 0 0 0 0 0 0 0 0 0 0 0 0 0 0 0 0 0 0 0 0 0 0 0 0 0 0
0 0 0 0 0 0 0 0 0 0 0 0 0 0 0 0 0 0 0 0 0 0 0 0 0 0 0 0 0 0 0 0 0 0 0 0 0 0 0 0 0 0 0
0 0 0 0 0 0 0 0 0 0 0 0 0 0 0 0 0 0 0 0 0 0 0 0 0 0 0 0 0 0 0 0 0 0 0 0 0 0 0 0 0 0 0
0 0 0 0 0 0 0 0 0 0 0 0 0 0 0 0 0 0 0 0 0 0 0 0 0 0 0 0 0 0 0 0 0 0 0 0 0 0 0 0 0 0 0
Height
5515 5509 5503 5498 5493 5489 5485 5482 5479 5477 5474 5473 5471 5469 5467 5466 5464 5463 5461 5460 5460 5460 5463 5469 5477 5485 5493 5499 5506 5513 5520 5529 5538 5547 5557 5566 5575 5583 5592 5599 5606 5615 5622
5509 5502 5496 5490 5485 5481 5476 5472 5469 5466 5463 5461 5459 5457 5454 5453 5451 5450 5448 5447 5446 5446 5449 5454 5461 5469 5477 5483 5490 5496 5503 5511 5519 5527 5536 5545 5554 5563 5571 5579 5588 5596 5604
5500 5493 5487 5481 5475 5470 5465 5461 5457 5454 5451 5448 5445 5443 5441 5439 5438 5437 5436 5435 5434 5435 5437 5441 5447 5454 5461 5468 5474 5481 5489 5496 5503 5511 5519 5528 5536 5545 5553 5561 5569 5577 5585
5489 5482 5475 5468 5463 5457 5452 5448 5444 5440 5437 5434 5431 5429 5427 5426 5425 5424 5424 5423 5423 5424 5426 5429 5433 5439 5447 5454 5460 5467 5474 5482 5490 5497 5504 5512 5520 5528 5536 5544 5552 5560 5568
5476 5468 5461 5454 5448 5442 5437 5432 5428 5425 5422 5419 5417 5415 5413 5411 5411 5411 5411 5412 5412 5413 5415 5418 5422 5426 5432 5439 5446 5454 5461 5469 5476 5484 5491 5498 5506 5513 5522 5529 5536 5544 5551
5462 5454 5446 5439 5432 5426 5420 5416 5411 5408 5405 5403 5401 5399 5398 5397 5396 5397 5398 5400 5401 5403 5404 5407 5411 5415 5420 5426 5434 5441 5449 5456 5464 5471 5478 5485 5492 5500 5507 5514 5521 5529 5538
5450 5442 5433 5425 5418 5410 5404 5399 5394 5390 5388 5385 5384 5383 5382 5382 5381 5382 5385 5388 5390 5391 5393 5396 5399 5403 5408 5414 5422 5429 5437 5444 5451 5458 5465 5472 5479 5487 5495 5503 5508 5514 5522
5441 5432 5423 5414 5406 5398 5391 5384 5378 5374 5370 5368 5367 5366 5366 5366 5367 5368 5371 5374 5377 5379 5382 5385 5389 5393 5397 5403 5410 5417 5424 5431 5439 5446 5452 5459 5465 5472 5480 5487 5494 5500 5507
5433 5424 5414 5405 5396 5387 5379 5371 5365 5359 5355 5352 5350 5350 5350 5350 5351 5353 5356 5360 5364 5367 5370 5373 5377 5381 5386 5392 5398 5405 5412 5418 5425 5432 5439 5445 5452 5460 5466 5473 5480 5487 5493
5427 5416 5406 5396 5386 5377 5368 5360 5353 5346 5341 5337 5335 5334 5334 5334 5335 5337 5340 5345 5350 5353 5357 5361 5365 5369 5374 5380 5386 5392 5398 5405 5412 5419 5426 5433 5440 5447 5453 5460 5467 5474 5480
5420 5408 5397 5387 5377 5367 5357 5349 5341 5335 5329 5324 5321 5319 5318 5319 5319 5321 5324 5329 5335 5339 5343 5348 5352 5357 5362 5367 5373 5379 5385 5392 5399 5407 5413 5420 5427 5434 5440 5447 5453 5461 5467
5413 5401 5389 5378 5367 5357 5348 5339 5330 5324 5318 5313 5309 5305 5304 5304 5305 5306 5309 5313 5319 5325 5329 5334 5339 5344 5349 5355 5360 5366 5373 5379 5386 5394 5400 5407 5414 5421 5427 5434 5441 5447 5454
5407 5394 5382 5370 5358 5347 5337 5328 5320 5313 5307 5302 5297 5294 5291 5290 5290 5292 5294 5298 5303 5309 5314 5319 5325 5330 5336 5342 5348 5354 5360 5367 5373 5380 5387 5394 5401 5408 5415 5421 5428 5434 5441
5401 5389 5376 5364 5352 5340 5328 5318 5309 5301 5295 5290 5286 5282 5279 5277 5276 5278 5280 5283 5288 5293 5299 5304 5310 5316 5322 5328 5334 5340 5347 5353 5360 5367 5374 5381 5388 5395 5402 5409 5415 5422 5428
5397 5384 5371 5359 5346 5334 5321 5309 5298 5290 5282 5277 5273 5271 5268 5266 5265 5265 5266 5269 5272 5277 5283 5289 5295 5302 5308 5314 5321 5327 5334 5340 5347 5354 5361 5368 5375 5382 5389 5396 5402 5409 5415
5394 5381 5368 5354 5340 5327 5314 5302 5288 5277 5269 5263 5259 5257 5256 5255 5254 5254 5254 5256 5259 5263 5268 5274 5280 5286 5293 5300 5307 5314 5320 5327 5334 5341 5348 5355 5362 5369 5376 5383 5389 5396 5402
5391 5378 5364 5350 5335 5321 5306 5291 5278 5267 5256 5249 5245 5244 5243 5243 5243 5244 5244 5245 5247 5250 5254 5259 5265 5271 5278 5285 5292 5299 5306 5313 5321 5328 5335 5342 5349 5356 5363 5370 5377 5384 5390
5390 5376 5363 5348 5332 5316 5299 5282 5266 5254 5245 5237 5233 5231 5231 5231 5232 5234 5235 5237 5238 5240 5242 5246 5251 5256 5263 5270 5277 5284 5292 5299 5307 5314 5322 5329 5336 5344 5351 5357 5364 5371 5378
5389 5377 5362 5347 5331 5314 5296 5278 5260 5246 5235 5227 5223 5221 5221 5222 5223 5225 5227 5228 5230 5231 5233 5235 5239 5243 5248 5255 5262 5269 5277 5284 5292 5300 5308 5315 5323 5330 5338 5345 5352 5359 5366
5390 5376 5362 5347 5331 5315 5297 5278 5260 5244 5231 5222 5217 5214 5213 5214 5215 5217 5219 5221 5222 5224 5225 5227 5229 5232 5235 5240 5246 5253 5261 5269 5277 5285 5293 5301 5309 5317 5324 5332 5340 5348 5355
5392 5378 5364 5349 5334 5319 5301 5282 5264 5248 5234 5223 5216 5212 5210 5210 5210 5212 5213 5215 5216 5217 5218 5219 5220 5222 5225 5228 5233 5238 5245 5252 5260 5269 5277 5285 5294 5302 5310 5319 5327 5335 5343
5394 5380 5367 5353 5339 5324 5307 5290 5273 5258 5243 5230 5221 5215 5212 5210 5209 5209 5210 5211 5211 5212 5212 5212 5213 5214 5216 5218 5221 5225 5230 5237 5244 5252 5261 5269 5278 5287 5296 5305 5313 5322 5330
5398 5385 5372 5359 5346 5331 5317 5302 5286 5271 5257 5244 5233 5224 5218 5214 5211 5210 5209 5208 5208 5208 5207 5207 5207 5207 5207 5208 5210 5213 5217 5222 5228 5236 5244 5252 5261 5270 5279 5289 5298 5307 5316
5404 5392 5380 5367 5354 5340 5326 5312 5299 5285 5272 5260 5249 5239 5230 5223 5218 5214 5211 5209 5207 5206 5204 5203 5201 5200 5200 5200 5201 5203 5206 5209 5214 5220 5227 5235 5244 5253 5262 5272 5282 5291 5301
5411 5399 5387 5375 5362 5349 5336 5323 5311 5299 5287 5276 5265 5255 5246 5238 5232 5226 5220 5216 5212 5209 5205 5202 5200 5197 5196 5195 5195 5196 5197 5199 5202 5207 5212 5219 5226 5235 5244 5254 5264 5275 5285
5418 5406 5395 5383 5371 5358 5346 5334 5322 5311 5300 5290 5280 5271 5262 5254 5247 5240 5233 5228 5222 5217 5213 5208 5204 5201 5198 5196 5194 5194 5193 5194 5195 5197 5201 5205 5211 5218 5227 5236 5246 5257 5268
Wind_Speed
40 38 36 34 33 32 31 31 30 30 31 32 33 34 35 36 37 37 38 38 41 44 49 53 55 55 56 57 60 63 66 70 74 76 75 76 76 76 76 76 76 74 73
42 40 39 37 36 35 35 34 34 34 34 35 35 36 37 37 37 37 36 36 36 36 39 44 48 51 53 55 55 56 57 58 62 66 69 71 72 75 76 76 77 77 76
45 44 43 42 41 41 40 39 39 38 38 38 38 38 38 38 37 36 34 34 34 35 37 42 46 48 50 52 53 54 54 53 54 57 60 64 66 69 72 74 75 75 76
50 48 47 47 46 45 45 44 43 42 41 41 40 40 39 38 37 35 34 33 33 35 37 40 44 46 49 49 49 51 52 52 52 53 55 57 60 62 65 68 70 71 72
52 51 50 50 49 48 48 47 47 46 44 43 42 41 40 39 38 36 34 33 33 34 37 41 44 47 50 49 47 47 50 51 51 51 52 53 54 56 58 61 63 65 66
53 52 51 50 49 49 48 48 47 47 46 45 44 42 41 40 39 37 35 34 34 34 35 39 42 47 49 49 48 47 47 49 50 51 51 52 52 53 55 57 58 60 61
49 49 48 48 47 47 46 46 45 45 45 44 44 43 42 41 40 39 36 35 35 35 35 36 39 42 46 47 48 48 47 47 49 49 51 52 52 52 53 54 55 56 57
49 49 49 48 47 46 45 44 44 43 42 42 42 42 42 42 41 40 38 36 36 36 37 36 37 39 42 44 45 47 47 47 47 49 49 50 52 53 53 53 53 53 54
50 49 49 48 47 46 45 43 42 40 40 39 39 40 41 42 42 42 40 38 38 38 38 38 39 39 41 43 44 46 47 48 48 49 50 50 50 50 50 51 52 51 52
51 51 50 49 48 47 45 43 40 38 37 36 36 37 39 41 43 43 42 40 39 39 39 39 40 40 41 42 44 45 47 48 49 49 51 51 50 49 49 50 51 51 51
53 53 52 51 50 48 46 43 41 38 35 33 33 34 36 39 42 43 44 42 41 41 41 41 41 41 42 43 44 46 48 49 50 50 51 51 51 50 50 50 50 50 50
55 55 54 53 51 49 47 45 42 39 36 33 31 31 32 35 39 43 44 44 43 43 43 43 43 43 43 44 45 46 48 49 50 51 51 51 51 51 51 51 50 50 50
56 55 54 53 52 51 49 46 43 40 37 33 31 29 29 31 34 39 43 45 45 44 45 46 45 45 44 45 45 46 47 49 49 50 50 51 51 51 51 51 50 50 50
57 56 55 54 52 51 50 48 45 41 38 34 31 29 27 27 29 33 38 42 45 45 46 47 47 47 47 46 46 47 48 48 49 49 49 50 51 51 51 50 50 50 50
57 56 56 55 54 53 51 50 47 43 40 35 31 28 26 25 26 28 31 36 41 45 47 47 48 48 48 48 48 47 48 48 49 49 49 49 50 50 50 50 49 49 49
57 56 57 57 56 56 54 51 48 45 40 36 32 29 26 24 23 24 25 29 34 40 44 47 48 49 50 50 50 49 49 49 49 49 50 49 49 49 49 48 48 47 47
57 57 59 59 59 59 58 55 48 42 38 35 31 28 26 24 23 22 22 23 27 31 37 43 47 49 51 51 52 52 51 51 50 50 50 50 49 49 48 48 47 46 45
57 57 59 60 61 62 62 59 52 43 35 30 27 25 24 23 22 21 21 20 21 24 28 34 40 46 50 52 53 53 53 53 53 52 51 51 51 50 49 48 47 46 45
56 57 59 61 63 64 64 62 55 46 37 28 23 21 20 20 20 20 20 19 19 20 22 26 31 38 44 50 53 54 55 55 55 55 54 53 52 52 51 49 48 47 46
57 57 59 62 64 65 65 63 59 51 41 30 22 17 15 15 16 17 18 18 19 19 20 21 25 29 35 42 49 53 56 57 57 57 57 56 55 54 53 52 51 49 47
57 58 59 61 63 65 66 65 62 57 48 37 28 20 14 11 11 12 14 15 16 18 19 21 22 24 28 34 41 48 53 57 59 60 60 60 59 58 56 55 53 52 50
59 59 60 60 61 63 66 66 64 62 56 47 37 28 21 14 10 8 9 11 13 15 17 19 21 23 25 29 33 39 46 52 57 60 61 62 62 61 60 59 57 56 54
59 59 60 59 59 61 63 64 64 63 61 58 51 42 33 24 17 12 8 8 10 13 15 17 19 21 23 25 28 32 38 44 51 57 60 62 64 64 64 63 61 60 58
59 59 59 59 59 59 60 61 63 63 62 60 57 54 49 42 34 27 20 15 11 10 10 12 13 15 17 19 22 25 30 35 41 48 55 60 63 65 66 66 65 64 62
57 58 58 59 59 59 59 59 59 60 60 59 58 57 54 52 48 44 39 34 29 25 20 16 12 9 7 8 11 14 19 24 30 37 44 51 57 62 66 67 68 67 66
56 56 57 58 59 59 59 59 58 57 57 57 56 56 55 53 52 50 47 44 41 38 35 31 28 23 19 13 8 4 5 11 17 24 31 39 47 54 60 64 67 68 68
Wind_Direction
325 322 320 317 313 309 305 301 296 292 289 287 286 285 284 282 280 280 277 273 264 256 248 241 238 237 237 237 239 240 241 242 242 241 240 239 238 237 236 236 236 236 235
321 318 316 313 309 306 303 299 296 293 290 288 286 285 284 283 281 280 278 274 266 255 244 235 230 230 230 233 234 235 236 238 239 239 237 236 235 235 235 235 235 235 235
316 314 311 308 305 302 300 297 294 292 290 288 286 285 283 282 281 278 275 272 264 253 244 234 229 228 227 229 230 232 233 234 235 236 236 235 234 234 234 234 234 234 235
313 311 308 305 302 299 296 294 292 289 288 286 285 283 282 280 278 275 272 268 262 253 245 239 234 228 224 224 226 229 230 231 233 234 234 234 234 234 234 235 235 235 235
313 311 308 305 302 298 295 292 289 287 285 283 281 280 279 278 275 272 267 263 260 254 248 243 238 233 227 227 226 228 229 230 232 232 233 233 233 234 234 235 235 236 236
317 315 313 310 307 303 299 295 291 287 283 280 278 276 276 274 272 268 263 259 257 253 249 245 241 238 235 234 231 229 229 231 231 231 231 232 234 234 234 234 235 236 237
325 323 321 318 315 311 306 301 296 290 285 280 276 273 271 270 268 265 260 255 253 251 248 245 241 240 239 238 236 233 231 231 230 231 232 233 235 235 235 236 236 237 237
330 329 327 325 322 318 314 309 303 296 289 282 276 270 267 265 264 262 258 252 249 248 245 243 241 239 238 238 237 235 233 232 231 231 232 234 235 236 236 237 237 238 238
335 333 332 330 327 324 320 315 310 303 295 286 278 270 265 262 259 258 255 250 246 245 243 242 241 239 237 237 236 235 233 231 231 233 233 234 235 235 236 237 237 238 238
339 337 335 333 331 329 326 322 317 311 303 294 283 273 265 260 257 255 252 247 244 242 241 239 238 238 236 235 234 233 231 230 230 231 232 234 234 234 234 234 234 235 237
340 339 337 335 333 331 329 326 322 317 311 303 292 280 268 260 256 253 250 246 242 240 239 238 236 235 235 233 231 231 230 229 229 229 229 231 232 232 232 232 233 234 236
342 340 339 337 335 333 331 328 324 320 316 309 301 290 276 264 256 252 250 246 242 239 238 236 235 234 233 233 231 231 230 228 228 228 228 228 229 231 231 231 233 235 237
345 344 342 341 339 336 333 329 325 321 317 311 304 296 285 272 261 253 249 247 243 239 237 235 234 234 233 233 232 231 230 229 229 228 229 228 229 230 230 231 233 236 238
348 348 347 345 344 341 337 333 328 322 317 312 306 299 290 280 269 258 251 247 244 240 237 235 234 233 233 233 232 231 230 230 230 229 229 229 229 229 230 232 234 236 238
352 352 351 349 347 344 341 336 330 324 318 312 306 298 291 284 276 266 256 249 244 241 239 237 235 233 232 232 232 231 230 230 229 229 230 230 230 230 230 231 233 235 238
355 355 354 352 350 348 344 340 333 326 318 311 305 298 291 284 278 271 263 255 248 243 240 238 236 234 232 231 231 231 231 230 230 229 230 230 230 230 230 231 233 234 237
356 357 357 356 354 352 349 345 339 330 320 310 302 294 288 282 277 272 268 261 254 248 243 240 238 236 234 232 231 231 231 230 230 229 229 230 230 230 230 231 232 233 235
358 359 359 359 358 357 355 352 347 341 330 316 303 293 284 278 273 270 267 265 260 253 248 243 240 238 236 234 232 232 231 231 230 230 230 229 230 230 230 231 232 233 235
0 0 1 2 2 2 1 360 357 352 345 334 317 299 286 276 271 267 265 263 262 259 254 249 244 240 238 236 234 233 232 231 231 231 230 230 230 230 229 230 231 233 234
2 3 4 5 5 6 6 6 6 4 1 355 343 325 303 283 272 266 263 263 262 261 259 256 251 246 242 239 237 235 233 232 232 231 231 230 230 230 229 229 230 231 232
6 7 7 7 8 10 11 13 14 15 13 11 7 359 344 317 290 274 268 266 265 264 263 261 258 254 248 243 240 238 236 234 233 232 231 231 231 230 230 230 229 229 230
10 11 11 11 12 14 16 19 20 22 24 24 22 19 14 4 344 312 287 276 273 271 270 268 265 262 257 251 246 241 238 237 235 233 232 232 231 231 231 230 230 229 229
14 14 14 14 15 17 20 22 25 27 30 32 33 33 31 27 21 10 344 313 295 288 283 279 274 270 265 259 253 247 242 239 237 235 234 233 232 232 231 231 231 230 230
16 17 17 18 19 20 22 24 27 29 32 34 37 39 41 42 41 39 34 24 8 345 322 307 295 284 274 266 258 252 247 242 239 237 235 234 233 233 232 231 231 231 230
18 19 20 20 22 23 25 26 28 30 32 35 37 39 41 43 45 47 47 47 45 43 38 30 20 1 331 293 269 256 249 245 241 238 236 235 234 233 233 232 232 231 231
18 20 21 22 23 25 26 27 28 30 32 34 36 38 40 42 44 45 46 47 48 48 48 47 46 45 43 40 31 355 273 252 245 241 238 236 235 234 233 232 232 232 231